STARLINK-31437, 60057

Orbit data source: Space-Track

STARLINK-31437, 60057 is a payload satellite owned by SpaceX/Seattle (US) in LEO that was launched on Sat, 08 Jun 2024 UTC via an FALCON 9 launch vehicle from the Air Force Western Test Range (AFWTR). Payload-class satellites include a variety of spacecraft equipped with specific instruments for various scientific and technological missions. These include communications satellites like Starlink; space stations such as the ISS; scientific satellites like the Hubble; Earth observation satellites from companies like Planet Labs, Umbra, and HawkEye 360; GPS; miniature CubeSats for education and research; and military/defense satellites.

Loading next visibility...
Identifier
60057, 2024-112V
Orbit
LEO
Country
Flag of USUS
Related business
Manufacturer
SpaceX/Seattle
Mission
Operational Commercial Communications
Bus & Motor
STARLINK V2M, Unknown motor
Mass
730 kg wet, ~700 kg dry
Launch date (UTC)
2024-06-08 (2 years ago)
Launch vehicle
FALCON 9
Launch site
Air Force Western Test Range (AFWTR)
Object type
Payload
Rocket body
Debris
Shape & HBR
Box + 2 Pan, 17.7 m
Radar Cross Section
33.884 m², Large (>1 m²)

Expand to show TLE details & history
Last TLE update: 1 day ago

TLE from 1 day ago
0 STARLINK-31437
1 60057U 24112V   26170.71722202  .00008846  00000-0  31084-3 0  9992
2 60057  53.1620 324.3632 0001399  87.7676 272.3485 15.30157649114214
Epoch: 2026-06-19T17:12Z
TLE epoch observation values (Epoch: 2026-06-19T17:12:47.982Z)
Latitude
-0.00002°
Longitude
158.22107°
Altitude
476.202 km
Speed
7.629 km/s
True Right ascension
21h 37m 27s
True Declination
0° 00' 00"
Sunlit
Object was in full shadow at epoch
Visualization orbit readout
Latitude
Unknown
Longitude
Unknown
Altitude
Unknown
Speed
Unknown
Apparent Right ascension
Unknown
Apparent Declination
Unknown
Sunlit
N/A
Visualization observer readout
Local Sidereal Time
07:14:15
Azimuth
Unknown
Elevation
Unknown
Doppler factor
Unknown
Orbital elements
Apogee altitude
476.556 km
Perigee altitude
474.639 km
Semi-major axis
6,853.735 km
Eccentricity
0.00014
Inclination
53.162°
RAAN
324.3632°
Arg. of periapsis
87.7676°
True anomaly
272.33248°
Mean anomaly
272.3485°
Eccentric anomaly
272.34049°
Mean motion
3.82518 °/min
Orbital period
94.11 mins
BSTAR
0.00031084
Loading maneuver chart data...
Computing Atmospheric mass density...
Loading historical data...
Loading historical data...
Loading historical data...
Loading historical data...
Loading historical data...
Loading historical data...
Loading historical data...

Documentation

Showing up to 5 results
|